Flag for Saudi Arabia Weather past 2 weeks in Jeddah, Saudi Arabia

Now
95 °F

Passing clouds.


Feels Like: 96 °F
Forecast: 84 / 99 °F
Wind: 7 mph from Northwest

Location: Jeddah King Abdul Aziz International Airport

Current Time: Jul 26, 2014 at 10:51:12 PM

Latest Report: Jul 26, 2014 at 10:00 PM


Visibility: N/A

Pressure: 29.71 "Hg

Humidity: 34%

Dew point: 63 °F

Location of JeddahLocation

Historic Weather in Jeddah — Graph

°F

Jeddah temperature yesterday

Maximum temperature yesterday: 100 °F (at 11:00 AM)
Minimum temperature yesterday: 86 °F (at 6:00 AM)
Average temperature yesterday: 93 °F

Past Weeks' High & Low Weather Summary

 TemperatureHumidityPressure
High106 °F (Jul 12, 1:00 PM)89% (Jul 13, 6:00 AM)29.77 "Hg (Jul 13, 6:00 AM)
Low81 °F (Jul 22, 6:00 AM)13% (Jul 12, 2:00 PM)29.50 "Hg (Jul 14, 4:00 PM)
Average93 °F47%29.65 "Hg
* Reported Jul 11 9:00 PM — Jul 26 9:00 PM, Jeddah, Weather by CustomWeather, © 2014

Note: Actual official high and low records may vary slightly from our data, if they occured in-between our weather recording intervals... More about our weather records

Advertising

Jeddah weather history for previous 24 hours

 ConditionsComfort  
Time TempWeatherWind HumidityBarometerVisibility
9:00 PM
Jul 26
95 °FPassing clouds.5 mph34%29.74 "HgN/A
8:00 PM95 °FPassing clouds.7 mph36%29.71 "HgN/A
7:00 PM95 °FSunny.9 mph39%29.68 "Hg10 mi
6:00 PM97 °FSunny.14 mph39%29.65 "Hg10 mi
5:00 PM97 °FPassing clouds.16 mph47%29.65 "HgN/A
4:00 PM99 °FPassing clouds.12 mph42%29.65 "HgN/A
3:00 PM99 °FSunny.16 mph42%29.68 "Hg10 mi
2:00 PM100 °FSunny.14 mph37%29.68 "Hg10 mi
1:00 PM102 °FSunny.9 mph33%29.68 "Hg5 mi
12:00 PM102 °FSunny.9 mph33%29.71 "Hg5 mi
11:00 AM100 °FExtremely hot.9 mph35%29.71 "Hg5 mi
10:00 AM97 °FSunny.5 mph39%29.74 "Hg10 mi
9:00 AM95 °FClear.7 mph44%29.74 "Hg5 mi
8:00 AM91 °FSunny.7 mph52%29.71 "Hg5 mi
7:00 AM91 °FSunny.7 mph52%29.71 "Hg5 mi
6:00 AM90 °FSunny.7 mph63%29.68 "Hg10 mi
5:00 AM90 °FClear.7 mph63%29.68 "Hg10 mi
4:00 AM90 °FClear.5 mph63%29.68 "Hg10 mi
3:00 AM91 °FClear.No wind56%29.68 "Hg10 mi
2:00 AM90 °FClear.No wind59%29.68 "Hg10 mi
1:00 AM90 °FClear.2 mph59%29.68 "Hg10 mi
12:00 AM90 °FClear.5 mph55%29.71 "Hg10 mi
11:00 PM
Jul 25
91 °FClear.7 mph49%29.71 "Hg10 mi
10:00 PM93 °FClear.7 mph47%29.71 "Hg10 mi
Weather by CustomWeather, © 2014

See weather overviewHow to use our weather pages